CW4185 Weather Reports


time (UTC)temp
C
wind
direction
speed
KPH
gust
KPH
rain 1hr
cm
rain 24hr
cm
rain mn
cm
humidity
%
barometer
mb
20260902133147 30 5 1.6 3.2 0.00 0.00 0.00 83 1016.9
20260902132646 29 67 3.2 4.8 0.00 0.00 0.00 86 1017.3
20260902132146 28 62 4.8 8.0 0.00 0.00 0.00 87 1016.9
20260902131647 29 32 4.8 4.8 0.00 0.00 0.00 86 1016.9
20260902131147 28 13 0.0 4.8 0.00 0.00 0.00 87 1017.3
20260902130646 28 46 1.6 4.8 0.00 0.00 0.00 88 1016.9
20260902130150 28 279 0.0 6.4 0.00 0.00 0.00 90 1017.3
20260902125647 27 348 3.2 8.0 0.00 0.00 0.00 91 1016.9
20260902125147 27 2 3.2 6.4 0.00 0.00 0.00 91 1016.6
20260902124647 27 38 6.4 8.0 0.00 0.00 0.00 91 1016.9
20260902124147 27 16 1.6 6.4 0.00 0.00 0.00 91 1016.6
20260902123647 28 335 4.8 6.4 0.00 0.00 0.00 90 1016.9
20260902123146 28 166 0.0 4.8 0.00 0.00 0.00 89 1016.6
20260902122650 28 37 1.6 8.0 0.00 0.00 0.00 90 1016.3
20260902122147 28 31 4.8 8.0 0.00 0.00 0.00 91 1016.6
20260902121646 27 19 6.4 8.0 0.00 0.00 0.00 91 1016.6
20260902121146 27 359 4.8 8.0 0.00 0.00 0.00 92 1016.6
20260902120213 27 61 4.8 9.7 0.00 0.00 0.00 94 1016.6
20260902115646 27 40 4.8 8.0 0.00 0.00 0.00 95 1016.3
20260902115147 26 7 3.2 6.4 0.00 0.00 0.00 95 1016.3
20260902114646 26 163 3.2 4.8 0.00 0.00 0.00 96 1016.3
20260902114146 26 38 3.2 4.8 0.00 0.00 0.00 97 1016.3
20260902113646 26 331 1.6 4.8 0.00 0.00 0.00 97 1015.9
20260902113147 26 209 1.6 3.2 0.00 0.00 0.00 96 1016.3
20260902112647 26 227 1.6 3.2 0.00 0.00 0.00 96 1015.9
20260902112147 26 195 0.0 1.6 0.00 0.00 0.00 95 1015.9
20260902111647 26 135 0.0 1.6 0.00 0.00 0.00 95 1015.9
20260902111146 26 117 0.0 3.2 0.00 0.00 0.00 96 1015.9
20260902110647 26 44 0.0 3.2 0.00 0.00 0.00 96 1015.9
20260902110147 26 190 0.0 0.0 0.00 0.00 0.00 96 1015.9
20260902105647 26 201 0.0 1.6 0.00 0.00 0.00 96 1015.9
20260902105150 26 224 0.0 1.6 0.00 0.00 0.00 95 1015.9
20260902104646 26 157 0.0 1.6 0.00 0.00 0.00 95 1015.6
20260902104147 26 117 0.0 0.0 0.00 0.00 0.00 95 1015.6
20260902103647 26 23 0.0 3.2 0.00 0.00 0.00 96 1015.6
20260902103146 26 157 0.0 1.6 0.00 0.00 0.00 95 1015.6
20260902102646 26 218 0.0 1.6 0.00 0.00 0.00 95 1015.6
20260902102146 26 142 0.0 1.6 0.00 0.00 0.00 95 1015.6
20260902101646 26 104 0.0 1.6 0.00 0.00 0.00 95 1015.6
20260902101147 26 22 1.6 3.2 0.00 0.00 0.00 96 1015.6
20260902100646 26 135 0.0 1.6 0.00 0.00 0.00 95 1015.6
20260902100147 26 89 0.0 1.6 0.00 0.00 0.00 95 1015.6
20260902095646 26 217 0.0 1.6 0.00 0.00 0.00 95 1015.6
20260902095147 26 135 0.0 0.0 0.00 0.00 0.00 95 1015.6
20260902094646 26 135 0.0 1.6 0.00 0.00 0.00 95 1015.6
20260902094147 26 42 1.6 3.2 0.00 0.00 0.00 95 1015.2
20260902093647 26 124 0.0 3.2 0.00 0.00 0.00 96 1015.2
20260902093146 26 242 0.0 1.6 0.00 0.00 0.00 96 1015.2
20260902092647 26 213 3.2 3.2 0.00 0.00 0.00 96 1015.2
20260902092146 26 216 1.6 1.6 0.00 0.00 0.00 95 1015.2
20260902091647 26 224 0.0 1.6 0.00 0.00 0.00 95 1015.6
20260902091146 26 221 1.6 1.6 0.00 0.00 0.00 95 1015.2
20260902090647 26 215 1.6 3.2 0.00 0.00 0.00 95 1015.2
20260902090146 26 201 1.6 1.6 0.00 0.00 0.00 94 1015.2
20260902085646 26 205 0.0 3.2 0.00 0.00 0.00 93 1015.2
20260902085147 26 89 0.0 3.2 0.00 0.00 0.00 94 1015.2
20260902084647 26 75 3.2 4.8 0.00 0.00 0.00 94 1015.2
20260902084147 26 67 1.6 3.2 0.00 0.00 0.00 94 1015.2
20260902083646 26 89 1.6 3.2 0.00 0.00 0.00 94 1015.2
20260902083147 26 72 1.6 3.2 0.00 0.00 0.00 94 1014.9
20260902082646 26 87 0.0 3.2 0.00 0.00 0.00 95 1015.2
20260902082146 26 103 3.2 4.8 0.00 0.00 0.00 96 1014.9
20260902081646 26 199 0.0 1.6 0.00 0.00 0.00 95 1015.2
20260902081147 26 233 3.2 3.2 0.00 0.00 0.00 96 1015.2
20260902080646 26 226 1.6 3.2 0.00 0.00 0.00 95 1015.2
20260902080146 26 214 0.0 3.2 0.00 0.00 0.00 95 1015.2
20260902075646 26 218 0.0 1.6 0.00 0.00 0.00 95 1015.2
20260902075147 26 230 0.0 3.2 0.00 0.00 0.00 95 1015.2
20260902074647 26 236 1.6 3.2 0.00 0.00 0.00 95 1014.9
20260902074146 26 227 1.6 1.6 0.00 0.00 0.00 94 1015.2
20260902073648 26 234 0.0 1.6 0.00 0.00 0.00 94 1015.2
20260902073148 26 226 1.6 3.2 0.00 0.00 0.00 94 1015.2
20260902072646 26 215 1.6 3.2 0.00 0.00 0.00 94 1015.2
20260902072147 26 194 1.6 3.2 0.00 0.00 0.00 94 1015.2
20260902071647 26 176 1.6 1.6 0.00 0.00 0.00 93 1015.2
20260902071146 26 186 1.6 3.2 0.00 0.00 0.00 93 1015.2
20260902070646 26 169 3.2 3.2 0.00 0.00 0.00 93 1015.6
20260902070147 26 186 0.0 3.2 0.00 0.00 0.00 93 1015.6
20260902065646 26 178 1.6 3.2 0.00 0.00 0.00 93 1015.6
20260902065146 26 185 1.6 3.2 0.00 0.00 0.00 93 1015.2
20260902064646 26 177 3.2 3.2 0.00 0.00 0.00 93 1015.6
20260902064146 26 179 1.6 3.2 0.00 0.00 0.00 92 1015.6
20260902063650 26 180 1.6 3.2 0.00 0.00 0.00 92 1015.6
20260902063146 26 176 1.6 3.2 0.00 0.00 0.00 92 1015.6
20260902062646 26 201 1.6 3.2 0.00 0.00 0.00 92 1015.6
20260902062147 26 177 1.6 3.2 0.00 0.00 0.00 92 1015.6
20260902061647 26 163 3.2 3.2 0.00 0.00 0.00 91 1015.6
20260902061146 26 185 1.6 3.2 0.00 0.00 0.00 91 1015.6
20260902060647 26 170 3.2 3.2 0.00 0.00 0.00 91 1015.6
20260902060149 27 170 3.2 3.2 0.00 0.00 0.00 91 1015.6
20260902055649 27 184 1.6 4.8 0.00 0.00 0.00 90 1015.9
20260902055146 27 160 3.2 3.2 0.00 0.00 0.00 90 1015.6
20260902054646 27 166 1.6 4.8 0.00 0.00 0.00 89 1015.6
20260902054147 27 152 3.2 4.8 0.00 0.00 0.00 89 1015.6
20260902053646 27 140 4.8 4.8 0.00 0.00 0.00 90 1015.9
20260902053147 27 66 1.6 3.2 0.00 0.00 0.00 89 1015.6
20260902052647 27 166 0.0 3.2 0.00 0.00 0.00 89 1015.9
20260902052147 27 130 1.6 3.2 0.00 0.00 0.00 89 1015.9
20260902051647 27 72 1.6 3.2 0.00 0.00 0.00 90 1015.9
20260902051147 27 77 0.0 3.2 0.00 0.00 0.00 90 1015.9
20260902050648 27 15 0.0 1.6 0.00 0.00 0.00 90 1015.6
20260902050146 27 67 0.0 1.6 0.00 0.00 0.00 90 1015.9
20260902045647 27 120 0.0 3.2 0.00 0.00 0.74 90 1015.6
20260902045146 27 40 0.0 3.2 0.00 0.00 0.74 89 1015.6
20260902044647 27 93 3.2 4.8 0.00 0.00 0.74 89 1015.6
20260902044146 27 153 4.8 6.4 0.00 0.00 0.74 89 1015.6
20260902043646 27 145 4.8 6.4 0.00 0.00 0.74 89 1015.9
20260902043147 27 140 4.8 4.8 0.00 0.00 0.74 89 1015.9
20260902042646 27 122 1.6 6.4 0.00 0.00 0.74 89 1015.6
20260902042146 27 157 3.2 6.4 0.00 0.00 0.74 89 1015.9
20260902041646 27 153 4.8 4.8 0.00 0.00 0.74 89 1015.6
20260902041147 27 160 4.8 6.4 0.00 0.00 0.74 89 1015.9
20260902040646 27 162 3.2 6.4 0.00 0.00 0.74 88 1015.9
20260902040147 27 139 3.2 4.8 0.00 0.00 0.74 88 1015.9
20260902035648 27 141 4.8 4.8 0.00 0.00 0.74 89 1015.9
20260902035147 27 153 1.6 4.8 0.00 0.00 0.74 89 1016.3
20260902034647 27 171 4.8 6.4 0.00 0.00 0.74 89 1016.3
20260902034146 27 133 4.8 4.8 0.00 0.00 0.74 89 1015.9
20260902033647 27 168 3.2 4.8 0.00 0.00 0.74 89 1015.9
20260902033147 27 149 3.2 4.8 0.00 0.00 0.74 88 1016.3
20260902032649 27 129 0.0 4.8 0.00 0.00 0.74 88 1016.3
20260902032146 27 97 3.2 8.0 0.00 0.00 0.74 88 1016.3
20260902031652 27 169 3.2 4.8 0.00 0.00 0.74 89 1016.3
20260902031147 27 162 0.0 3.2 0.00 0.00 0.74 88 1016.6
20260902030647 27 168 1.6 3.2 0.00 0.00 0.74 88 1016.6
20260902030147 27 98 0.0 3.2 0.00 0.00 0.74 88 1016.6
20260902025646 27 104 0.0 6.4 0.00 0.00 0.74 89 1016.3
20260902025146 27 155 4.8 6.4 0.00 0.00 0.74 89 1016.6
20260902024646 27 166 3.2 4.8 0.00 0.00 0.74 88 1016.3
20260902024146 27 148 0.0 3.2 0.00 0.00 0.74 87 1016.3
20260902023647 27 287 0.0 3.2 0.00 0.00 0.74 87 1016.3
20260902023147 27 146 3.2 3.2 0.00 0.00 0.74 88 1016.3
20260902022647 27 155 4.8 6.4 0.00 0.00 0.74 88 1016.3
20260902022148 27 169 3.2 4.8 0.00 0.00 0.74 87 1015.9
20260902021646 27 171 3.2 4.8 0.00 0.00 0.74 87 1015.9
20260902021146 27 160 0.0 4.8 0.00 0.00 0.74 86 1015.9
20260902020646 27 153 1.6 4.8 0.00 0.00 0.74 86 1015.6
20260902020146 27 141 3.2 4.8 0.00 0.00 0.74 86 1015.9
20260902015646 28 246 0.0 3.2 0.00 0.00 0.74 85 1015.9
20260902015147 28 118 1.6 8.0 0.00 0.00 0.74 85 1015.6
20260902014647 28 64 3.2 4.8 0.00 0.00 0.74 85 1015.6
20260902014146 28 107 0.0 3.2 0.00 0.00 0.74 85 1015.6
20260902013646 27 59 0.0 4.8 0.00 0.00 0.74 85 1015.6
20260902013146 27 169 0.0 4.8 0.00 0.00 0.74 85 1015.6
20260902012647 27 153 4.8 4.8 0.00 0.00 0.74 85 1015.2
20260902012146 27 167 4.8 4.8 0.00 0.00 0.74 84 1015.2
20260902011647 27 147 4.8 4.8 0.00 0.00 0.74 84 1015.2
20260902011147 27 167 3.2 4.8 0.00 0.00 0.74 84 1015.2
20260902010646 27 149 3.2 3.2 0.00 0.00 0.74 84 1015.2
20260902010146 27 136 3.2 3.2 0.00 0.00 0.74 84 1015.2
20260902005646 28 89 0.0 1.6 0.00 0.00 0.74 83 1015.2
20260902005148 28 191 0.0 3.2 0.00 0.00 0.74 83 1014.9
20260902004647 28 172 3.2 3.2 0.00 0.00 0.74 83 1015.2
20260902004146 28 189 3.2 3.2 0.00 0.00 0.74 83 1015.2
20260902003646 28 158 0.0 1.6 0.00 0.00 0.74 83 1015.2
20260902003147 28 159 3.2 4.8 0.00 0.00 0.74 82 1014.9
20260902002646 28 170 3.2 4.8 0.00 0.00 0.74 82 1015.2
20260902002147 28 165 4.8 4.8 0.00 0.00 0.74 81 1014.9
20260902001647 28 141 0.0 4.8 0.00 0.00 0.74 80 1015.2
20260902001147 28 154 0.0 3.2 0.00 0.00 0.74 80 1014.9
20260902000646 28 157 3.2 4.8 0.00 0.00 0.74 80 1014.9
20260902000146 28 179 3.2 4.8 0.00 0.00 0.74 79 1014.9
20260901235647 28 139 3.2 6.4 0.00 0.00 0.74 79 1014.9
20260901235146 28 123 1.6 3.2 0.00 0.00 0.74 80 1014.9
20260901234646 28 217 0.0 3.2 0.00 0.00 0.74 80 1014.9
20260901234146 28 177 3.2 3.2 0.00 0.00 0.74 79 1014.9
20260901233646 28 174 3.2 4.8 0.00 0.00 0.74 78 1014.9
20260901233147 28 173 3.2 4.8 0.00 0.00 0.74 79 1014.9
20260901232646 28 164 6.4 8.0 0.00 0.00 0.74 79 1014.9
20260901232146 28 140 4.8 8.0 0.00 0.00 0.74 78 1014.6
20260901231646 28 153 4.8 6.4 0.00 0.00 0.74 78 1014.9
20260901231147 28 165 4.8 6.4 0.00 0.00 0.74 80 1015.2
20260901230650 28 177 4.8 9.7 0.00 0.00 0.74 80 1015.2
20260901230146 28 165 4.8 8.0 0.00 0.00 0.74 80 1014.9
20260901225646 28 175 6.4 14.5 0.00 0.00 0.74 80 1015.2
20260901225146 28 171 4.8 6.4 0.00 0.00 0.74 85 1015.2
20260901224646 28 164 8.0 8.0 0.00 0.00 0.74 84 1015.2
20260901224150 28 177 8.0 11.3 0.00 0.00 0.74 85 1015.2
20260901223647 28 183 8.0 8.0 0.00 0.00 0.74 84 1015.2
20260901223146 28 184 6.4 9.7 0.00 0.00 0.74 84 1015.2
20260901222646 28 188 8.0 12.9 0.00 0.00 0.74 83 1015.2
20260901222147 28 168 8.0 9.7 0.00 0.00 0.74 81 1015.2
20260901221646 28 174 6.4 9.7 0.00 0.00 0.74 82 1015.2
20260901221146 28 179 8.0 8.0 0.00 0.00 0.74 81 1015.2
20260901220648 28 170 6.4 6.4 0.00 0.00 0.74 79 1014.9
20260901220146 28 76 1.6 11.3 0.00 0.00 0.74 79 1015.2
20260901215646 28 175 8.0 8.0 0.00 0.00 0.74 80 1014.9
20260901215147 28 187 4.8 6.4 0.00 0.00 0.74 81 1014.9
20260901214647 28 168 4.8 6.4 0.00 0.00 0.74 80 1015.2
20260901214147 28 175 9.7 9.7 0.00 0.00 0.74 79 1015.2
20260901213647 28 178 4.8 6.4 0.00 0.00 0.74 80 1015.2
20260901213146 28 178 6.4 8.0 0.00 0.00 0.74 79 1015.2
20260901212647 28 177 4.8 11.3 0.00 0.00 0.74 80 1015.2
20260901212146 28 187 3.2 4.8 0.00 0.00 0.74 78 1015.2
20260901211646 28 330 0.0 4.8 0.00 0.00 0.74 77 1015.2
20260901211147 28 215 1.6 4.8 0.00 0.00 0.74 78 1015.2
20260901210647 28 209 3.2 6.4 0.00 0.00 0.74 79 1015.2
20260901210152 28 164 3.2 6.4 0.00 0.00 0.74 79 1015.2
20260901205647 28 166 4.8 4.8 0.00 0.00 0.74 79 1015.2
20260901205146 28 58 4.8 4.8 0.00 0.00 0.74 79 1015.2
20260901204647 28 307 3.2 3.2 0.00 0.00 0.74 80 1015.2
20260901204146 28 266 1.6 3.2 0.00 0.00 0.74 82 1015.6
20260901203647 27 213 1.6 3.2 0.00 0.00 0.74 83 1015.6
20260901203147 27 181 4.8 4.8 0.00 0.00 0.74 83 1015.9
20260901202647 27 224 0.0 4.8 0.00 0.00 0.74 83 1015.9
20260901202146 28 197 3.2 4.8 0.00 0.00 0.74 82 1015.9
20260901201647 27 217 1.6 4.8 0.00 0.00 0.74 83 1015.9
20260901201147 27 226 0.0 3.2 0.00 0.00 0.74 85 1016.3
20260901200646 27 259 1.6 4.8 0.00 0.00 0.74 85 1016.3
20260901200147 27 20 4.8 6.4 0.00 0.00 0.74 85 1016.6
20260901195646 27 288 4.8 6.4 0.00 0.00 0.74 86 1016.3
20260901195146 27 324 4.8 6.4 0.00 0.00 0.74 87 1016.9
20260901194648 27 332 4.8 6.4 0.00 0.00 0.74 87 1016.9
20260901194147 27 347 4.8 6.4 0.00 0.00 0.74 87 1016.9
20260901193646 27 360 4.8 4.8 0.00 0.00 0.74 86 1016.6
20260901193148 27 292 3.2 6.4 0.00 0.00 0.74 83 1016.6
20260901192646 27 227 6.4 11.3 0.00 0.00 0.74 84 1016.3
20260901192147 27 229 6.4 11.3 0.00 0.00 0.74 87 1016.6
20260901191647 27 195 9.7 12.9 0.00 0.00 0.74 88 1016.3
20260901191146 27 205 6.4 9.7 0.00 0.00 0.74 90 1016.3
20260901190647 26 204 8.0 9.7 0.00 0.00 0.74 90 1016.3
20260901190147 26 230 9.7 12.9 0.00 0.00 0.74 90 1016.3
20260901185646 26 215 11.3 16.1 0.05 0.00 0.74 92 1016.6
20260901185147 26 185 8.0 22.5 0.53 0.00 0.71 92 1015.9
20260901184647 26 210 6.4 24.1 1.19 0.00 0.71 92 1016.3
20260901184147 26 176 9.7 16.1 3.35 0.00 0.64 92 1016.6
20260901183646 27 174 0.0 30.6 2.82 0.00 0.51 89 1016.9
20260901183147 30 163 9.7 16.1 0.05 0.00 0.05 79 1016.3
20260901182647 31 224 4.8 17.7 0.00 0.00 0.05 75 1016.3
20260901182146 31 150 11.3 19.3 0.00 0.00 0.05 72 1015.9
20260901181647 31 158 11.3 17.7 0.00 0.00 0.05 73 1015.9
20260901181147 31 170 11.3 14.5 0.00 0.00 0.05 72 1016.3
20260901180646 32 150 4.8 8.0 0.00 0.00 0.05 67 1016.3
20260901180146 31 169 6.4 12.9 0.00 0.00 0.05 69 1016.3
20260901175646 31 129 11.3 11.3 0.00 0.00 0.05 69 1016.6
20260901175146 32 171 3.2 11.3 0.00 0.00 0.05 68 1016.3
20260901174647 32 282 1.6 11.3 0.00 0.00 0.05 69 1016.3
20260901174147 31 43 4.8 11.3 0.00 0.00 0.05 74 1016.3
20260901173647 30 214 0.0 6.4 0.00 0.00 0.05 77 1016.3
20260901173147 30 180 3.2 9.7 0.00 0.00 0.05 78 1016.3
20260901172647 30 219 3.2 8.0 0.00 0.00 0.05 78 1016.3
20260901172146 30 223 1.6 4.8 0.00 0.00 0.05 78 1016.6
20260901171647 29 229 3.2 4.8 0.00 0.00 0.05 80 1016.6
20260901171147 28 304 3.2 6.4 0.05 0.00 0.05 82 1016.6
20260901170647 28 235 4.8 6.4 0.05 0.00 0.05 83 1016.6
20260901170146 28 221 4.8 9.7 0.05 0.00 0.05 84 1017.3
20260901165646 28 216 14.5 17.7 0.23 0.00 0.05 83 1016.9
20260901165146 30 204 14.5 22.5 0.18 0.00 0.03 77 1016.9
20260901164646 31 164 4.8 16.1 0.00 0.00 0.00 67 1016.9
20260901164146 31 5 1.6 11.3 0.00 0.00 0.00 68 1016.9
20260901163647 31 142 4.8 9.7 0.00 0.00 0.00 68 1016.9
20260901163146 32 71 8.0 11.3 0.00 0.00 0.00 68 1016.9
20260901162646 32 39 14.5 16.1 0.00 0.00 0.00 67 1016.9
20260901162146 31 51 8.0 11.3 0.00 0.00 0.00 69 1016.9
20260901161649 31 82 4.8 12.9 0.00 0.00 0.00 69 1016.9
20260901161146 31 235 0.0 14.5 0.00 0.00 0.00 69 1016.6
20260901160647 31 82 4.8 6.4 0.00 0.00 0.00 69 1016.9
20260901155647 32 37 1.6 8.0 0.00 0.00 0.00 68 1016.6
20260901155146 31 84 6.4 17.7 0.00 0.00 0.00 69 1016.6
20260901154646 31 149 12.9 14.5 0.00 0.00 0.00 69 1016.6
20260901154146 32 144 9.7 9.7 0.00 0.00 0.00 69 1016.6
20260901153647 31 129 4.8 9.7 0.00 0.00 0.00 71 1016.9
20260901153148 32 80 11.3 16.1 0.00 0.00 0.00 69 1016.6
20260901152647 32 69 3.2 12.9 0.00 0.00 0.00 70 1016.6
20260901152147 32 155 6.4 19.3 0.00 0.00 0.00 71 1016.6
20260901151646 32 69 4.8 14.5 0.00 0.00 0.00 71 1016.6
20260901151147 31 156 4.8 16.1 0.00 0.00 0.00 71 1016.9
20260901150647 32 64 6.4 11.3 0.00 0.00 0.00 71 1016.9
20260901150147 32 150 11.3 14.5 0.00 0.00 0.00 71 1016.6
20260901145646 32 21 8.0 11.3 0.00 0.00 0.00 72 1016.6
20260901145147 31 173 3.2 17.7 0.00 0.00 0.00 72 1016.6
20260901144647 31 57 4.8 16.1 0.00 0.00 0.00 73 1016.6
20260901144146 31 130 3.2 12.9 0.00 0.00 0.00 74 1016.3
20260901143647 31 72 8.0 14.5 0.00 0.00 0.00 75 1016.6
20260901143146 31 86 4.8 14.5 0.00 0.00 0.00 77 1016.6
20260901142647 31 14 3.2 11.3 0.00 0.00 0.00 78 1016.6
20260901142146 31 77 11.3 24.1 0.00 0.00 0.00 78 1016.6
20260901141647 30 82 4.8 11.3 0.00 0.00 0.00 79 1016.6
20260901141147 30 202 4.8 11.3 0.00 0.00 0.00 79 1016.6
20260901140647 30 57 4.8 9.7 0.00 0.00 0.00 79 1016.6
20260901140146 30 77 8.0 14.5 0.00 0.00 0.00 79 1016.6
20260901135647 30 172 4.8 9.7 0.00 0.00 0.00 79 1016.6
20260901135147 30 139 4.8 11.3 0.00 0.00 0.00 81 1016.6
20260901134646 30 67 17.7 19.3 0.00 0.00 0.00 81 1016.6
20260901134147 30 1 1.6 11.3 0.00 0.00 0.00 81 1016.6
20260901133647 30 32 1.6 8.0 0.00 0.00 0.00 82 1016.6